星链-32612 (STARLINK-32612)

导读

STARLINK-32612是美国SpaceX星链计划中的一颗低轨互联网通信卫星,于北京时间2024年11月14日(发射当地时间11月13日),从美国佛罗里达州空军东部试验场发射升空。该卫星NORAD编号为61972,COSPAR编号为2024-210P,目前处于正常运行状态。其轨道倾角43.001°,平均轨道高度约490.1千米,轨道周期94.265分钟,属于星链星座的组网卫星,为全球提供高速互联网服务。

Basic Information
目录编号:
61972
目录名称:
STARLINK-32612
国际标识:
2024-210P
轨道中心:
EARTH
卫星名称:
星链-32612
卫星全名:
星链-32612 (STARLINK-32612)
卫星状态:
在轨 (已飞行659 天)
发射日期:
2024-11-14 UTC
国别 :
美国 (US)
星等 :
--
Orbit Information
数据来源 国际轨道数据
星历时间: 2026-09-04T15:19:16+0800
11小时前
查看轨道信息
半长轴: 6861.213km
偏心率: 0.0002321
轨道倾角: 43.003°
近地点辐角 276.517°
升交点赤经 251.374°
平近点角 83.542°
近地点: 481.483km
远地点: 484.669km
周期: 94.267分钟
每日圈数: 15.275712
Detailed Information
固有亮度:
5
最大亮度:
2.5
卫星平台:
Starlink V1.0
覆盖范围:
全球
运营商:
太空探索技术公司
运营商所在国:
美国
制造商(研发单位):
太空探索技术公司
制造商所在国:
美国
使用方式:
暂无
Satellite Introduction
Starlink 计划是 SpaceX 推出的全球卫星互联网项目,通过发射低轨道卫星,为全球尤其是偏远地区提供高速、低延迟的互联网服务。自 2019 年起,Starlink 已部署数千颗卫星,旨在缩小全球数字鸿沟,推动互联网普及。该项目还为军事、航空等行业提供通信支持,带来广泛经济效益。
2D Orbit Map
3D Orbit Map
Orbit Altitude Analysis Chart
Orbit Inclination Analysis Chart
Orbit Comprehensive Analysis Chart
View Comprehensive Chart
Conjunction Data List
Event ID Objects TCA Miss Dist (km) Collision Risk Probability Collision Risk Index (CRI) Action
CDM_260906-122206-197206-327921
2026-09-06T
12:22:47+0000
1.159 km
极远距离
7.659127E-6 低风险 0.53
CDM_260906-104806-197206-327921
2026-09-06T
10:48:37+0000
1.446 km
极远距离
3.667781E-6 低风险 0.46
CDM_260907-000806-197206-327921
2026-09-07T
00:08:55+0000
1.672 km
极远距离
2.361843E-6 低风险 0.42
CDM_260906-223406-197206-327921
2026-09-06T
22:34:46+0000
1.698 km
极远距离
2.260698E-6 低风险 0.42
CDM_260906-135606-197206-327921
2026-09-06T
13:56:56+0000
2.537 km
极远距离
9.191005E-7 极低风险 0.34
CDM_260906-091406-197206-327921
2026-09-06T
09:14:28+0000
2.895 km
极远距离
7.662186E-7 极低风险 0.33